EW7558 Weather Reports


time (UTC)temp
C
wind
direction
speed
KPH
gust
KPH
rain 1hr
cm
rain 24hr
cm
rain mn
cm
humidity
%
barometer
mb
20260507080010 10 230 0.0 3.2 0.00 1.52 0.66 89 1013.3
20260507074510 10 236 0.0 1.6 0.00 1.52 0.66 90 1013.4
20260507073008 10 230 0.0 3.2 0.00 1.52 0.66 90 1013.4
20260507071521 10 237 1.6 6.4 0.00 1.52 0.66 91 1013.5
20260507070010 10 257 1.6 4.8 0.03 1.52 0.66 91 1013.6
20260507064505 10 243 0.0 3.2 0.05 1.52 0.66 91 1013.5
20260507063006 10 242 0.0 0.0 0.05 1.52 0.66 91 1013.6
20260507061506 10 242 0.0 0.0 0.10 1.52 0.66 91 1013.6
20260507060003 10 243 0.0 0.0 0.10 1.50 0.64 90 1013.6
20260507054503 10 242 0.0 0.0 0.38 1.45 0.61 89 1013.4
20260507053129 10 243 0.0 0.0 0.58 1.45 0.61 89 1013.1
20260507051605 10 242 0.0 0.0 0.53 1.42 0.56 88 1013.5
20260507050056 10 243 0.0 4.8 0.53 1.40 0.53 87 1013.6
20260507044556 11 245 3.2 9.7 0.38 1.12 0.25 86 1013.7
20260507043052 11 252 0.0 4.8 0.18 0.89 0.03 85 1013.4
20260507041548 12 169 3.2 9.7 0.18 0.89 0.03 84 1013.2
20260507040045 12 266 3.2 8.0 0.15 0.86 0.86 82 1013.0
20260507034540 13 232 0.0 6.4 0.03 0.71 0.71 80 1012.8
20260507033044 13 247 1.6 11.3 0.00 0.71 0.71 80 1013.0
20260507031535 13 188 4.8 11.3 0.00 0.71 0.71 80 1012.6
20260507030033 13 210 6.4 11.3 0.00 0.71 0.71 79 1012.6
20260507024533 13 247 1.6 9.7 0.00 0.71 0.71 79 1012.7
20260507023034 13 241 3.2 9.7 0.00 0.71 0.71 79 1012.5
20260507021527 14 242 4.8 12.9 0.00 0.71 0.71 80 1012.4
20260507020025 14 221 3.2 9.7 0.00 0.71 0.71 80 1012.3
20260507014523 15 254 4.8 11.3 0.00 0.71 0.71 81 1012.5
20260507013021 15 252 3.2 8.0 0.00 0.71 0.71 82 1012.5
20260507011520 15 201 1.6 8.0 0.00 0.71 0.71 81 1012.7
20260507010023 15 230 1.6 8.0 0.00 0.71 0.71 80 1012.3
20260507004514 15 267 1.6 11.3 0.00 0.71 0.71 81 1012.1
20260507003013 16 240 4.8 14.5 0.00 0.71 0.71 81 1011.8
20260507001511 16 270 6.4 12.9 0.00 0.71 0.71 86 1011.8
20260507000015 17 254 3.2 8.0 0.00 0.71 0.71 90 1011.0
20260506234510 17 244 1.6 4.8 0.03 0.71 0.71 90 1010.6
20260506233010 17 264 1.6 4.8 0.03 0.71 0.71 90 1010.3
20260506231508 17 272 1.6 6.4 0.03 0.71 0.71 89 1010.4
20260506230008 17 262 1.6 6.4 0.03 0.71 0.71 87 1010.2
20260506224509 18 274 4.8 11.3 0.00 0.69 0.69 86 1010.2
20260506223006 18 308 1.6 11.3 0.00 0.69 0.69 84 1010.0
20260506221509 18 276 3.2 9.7 0.00 0.69 0.69 84 1009.9
20260506220018 18 37 1.6 11.3 0.00 0.69 0.69 83 1009.8
20260506214506 18 258 1.6 8.0 0.00 0.69 0.69 84 1009.4
20260506213004 18 265 3.2 8.0 0.00 0.69 0.69 84 1009.3
20260506211502 18 253 1.6 6.4 0.00 0.69 0.69 84 1009.3
20260506210007 18 305 3.2 11.3 0.00 0.69 0.69 84 1009.1
20260506204501 18 287 1.6 11.3 0.00 0.69 0.69 85 1009.1
20260506203000 18 282 3.2 9.7 0.00 0.69 0.69 85 1009.1
20260506201559 18 259 4.8 11.3 0.00 0.69 0.69 86 1009.2
20260506200106 17 288 3.2 9.7 0.00 0.69 0.69 86 1009.3
20260506194605 17 252 1.6 9.7 0.00 0.69 0.69 86 1009.4
20260506193059 17 264 3.2 14.5 0.00 0.69 0.69 86 1009.4
20260506191606 18 252 1.6 14.5 0.00 0.69 0.69 85 1009.5
20260506190055 18 294 1.6 9.7 0.00 0.69 0.69 86 1009.5
20260506184553 17 250 4.8 12.9 0.00 0.69 0.69 86 1009.7
20260506183057 17 235 6.4 12.9 0.00 0.69 0.69 86 1009.7
20260506181559 17 280 4.8 17.7 0.00 0.69 0.69 87 1009.8
20260506180111 16 292 4.8 14.5 0.00 0.69 0.69 88 1009.9
20260506174551 16 273 4.8 12.9 0.00 0.69 0.69 89 1010.0
20260506173116 16 241 1.6 9.7 0.00 0.69 0.69 89 1010.0
20260506171549 16 59 4.8 19.3 0.00 0.69 0.69 89 1010.0
20260506170048 16 277 4.8 16.1 0.00 0.69 0.69 90 1010.0
20260506164548 16 309 4.8 12.9 0.00 0.69 0.69 90 1010.0
20260506163053 16 264 3.2 9.7 0.00 0.69 0.69 91 1009.9
20260506161554 15 287 1.6 9.7 0.03 0.69 0.69 91 1010.0
20260506160048 15 257 1.6 9.7 0.05 0.69 0.69 91 1010.1
20260506154547 16 285 1.6 12.9 0.20 0.69 0.69 91 1010.0
20260506153044 15 287 0.0 9.7 0.28 0.69 0.69 91 1009.8
20260506151546 15 80 0.0 4.8 0.30 0.66 0.66 91 1009.6
20260506150044 15 75 1.6 9.7 0.30 0.64 0.64 91 1010.4
20260506144558 15 266 1.6 8.0 0.20 0.48 0.48 91 1010.8
20260506143040 15 261 0.0 11.3 0.20 0.41 0.41 90 1010.8
20260506141539 15 232 3.2 16.1 0.23 0.36 0.36 90 1010.6
20260506140038 15 297 1.6 8.0 0.23 0.33 0.33 90 1010.4
20260506134537 15 141 0.0 11.3 0.20 0.28 0.28 89 1010.1
20260506133041 15 277 0.0 8.0 0.18 0.20 0.20 88 1010.4
20260506131532 16 292 0.0 9.7 0.13 0.13 0.13 86 1010.4
20260506130030 16 272 1.6 11.3 0.10 0.10 0.10 85 1010.4
20260506124528 16 278 1.6 11.3 0.08 0.08 0.08 84 1010.4
20260506123026 16 285 4.8 14.5 0.03 0.03 0.03 81 1010.6
20260506121527 17 259 3.2 11.3 0.00 0.00 0.00 80 1010.8
20260506120027 17 259 4.8 11.3 0.00 0.00 0.00 78 1010.9
20260506114517 17 267 6.4 14.5 0.00 0.00 0.00 75 1010.7
20260506113015 18 283 1.6 9.7 0.00 0.00 0.00 71 1010.3
20260506111512 18 251 1.6 11.3 0.00 0.00 0.00 70 1010.1
20260506110114 18 290 3.2 11.3 0.00 0.00 0.00 70 1010.1
20260506104508 18 247 3.2 16.1 0.00 0.00 0.00 67 1009.8
20260506103007 18 288 4.8 12.9 0.00 0.00 0.00 66 1009.7
20260506101505 18 254 1.6 12.9 0.00 0.00 0.00 66 1009.7
20260506100004 18 276 1.6 11.3 0.00 0.00 0.00 65 1009.6
20260506094502 18 241 1.6 9.7 0.00 0.00 0.00 64 1009.6
20260506093001 18 245 1.6 12.9 0.00 0.00 0.00 64 1009.4
20260506091602 18 278 3.2 11.3 0.00 0.00 0.00 63 1009.6
20260506090101 18 268 3.2 11.3 0.00 0.00 0.00 62 1009.9
20260506084559 19 286 3.2 14.5 0.00 0.00 0.00 61 1009.9
20260506083100 19 238 1.6 9.7 0.00 0.00 0.00 61 1009.8
20260506081553 19 295 1.6 11.3 0.00 0.00 0.00 60 1009.9
20260506080105 20 273 1.6 12.9 0.00 0.00 0.00 59 1009.8